﻿_id,日時,平均風速(m/s),平均風向,最大瞬間風速(m/s),最大風速時風向,気温(℃),湿度(%),10分間移動積算雨量(mm),1時間移動積算雨量(mm),日雨量(mm),累計雨量(mm),日射(日積算)(MJ/m2),日照(日積算)(min),現地気圧(hPa),海面気圧(hPa)
1,2023-05-29T00:00:00,4.8,南南西,7.5,南南西,20.6,84.2,0,0,0,0,14.69,286,1002.9,1016.5
2,2023-05-29T00:01:00,4.9,南南西,7.5,南南西,20.6,84.3,0,0,0,0,0,0,1002.8,1016.4
3,2023-05-29T00:02:00,4.8,南南西,7.5,南南西,20.6,84.4,0,0,0,0,0,0,1002.9,1016.5
4,2023-05-29T00:03:00,4.8,南南西,7.5,南南西,20.6,84.4,0,0,0,0,0,0,1002.8,1016.4
5,2023-05-29T00:04:00,4.7,南南西,7.5,南南西,20.6,84.5,0,0,0,0,0,0,1002.8,1016.4
6,2023-05-29T00:05:00,4.5,南南西,7.5,南南西,20.6,84.6,0,0,0,0,0,0,1002.9,1016.5
7,2023-05-29T00:06:00,4.3,南南西,6.7,南南西,20.6,84.7,0,0,0,0,0,0,1002.9,1016.5
8,2023-05-29T00:07:00,4.4,南南西,6.7,南南西,20.6,84.6,0,0,0,0,0,0,1002.9,1016.5
9,2023-05-29T00:08:00,4.4,南南西,6.7,南南西,20.6,84.5,0,0,0,0,0,0,1002.9,1016.5
10,2023-05-29T00:09:00,4.4,南南西,6.6,南,20.6,84.5,0,0,0,0,0,0,1002.8,1016.4
11,2023-05-29T00:10:00,4.4,南南西,6.6,南,20.6,84.5,0,0,0,0,0,0,1002.8,1016.4
12,2023-05-29T00:11:00,4.3,南南西,6.6,南,20.6,84.5,0,0,0,0,0,0,1002.8,1016.4
13,2023-05-29T00:12:00,4.4,南南西,6.6,南,20.6,84.6,0,0,0,0,0,0,1002.8,1016.4
14,2023-05-29T00:13:00,4.4,南南西,6.6,南,20.6,84.6,0,0,0,0,0,0,1002.8,1016.4
15,2023-05-29T00:14:00,4.4,南南西,6.6,南,20.6,84.6,0,0,0,0,0,0,1002.9,1016.5
16,2023-05-29T00:15:00,4.6,南南西,6.6,南,20.6,84.5,0,0,0,0,0,0,1002.9,1016.5
17,2023-05-29T00:16:00,4.6,南南西,6.6,南,20.6,84.4,0,0,0,0,0,0,1002.9,1016.5
18,2023-05-29T00:17:00,4.4,南南西,6.6,南,20.6,84.3,0,0,0,0,0,0,1003,1016.6
19,2023-05-29T00:18:00,4.4,南南西,6.6,南,20.6,84.1,0,0,0,0,0,0,1002.9,1016.5
20,2023-05-29T00:19:00,4.3,南南西,6.6,南南西,20.6,84,0,0,0,0,0,0,1002.9,1016.5
21,2023-05-29T00:20:00,4.2,南南西,6.6,南南西,20.6,84.1,0,0,0,0,0,0,1002.9,1016.5
22,2023-05-29T00:21:00,4.1,南南西,6.6,南南西,20.6,84,0,0,0,0,0,0,1002.8,1016.4
23,2023-05-29T00:22:00,4.1,南南西,6.6,南南西,20.6,84,0,0,0,0,0,0,1002.8,1016.4
24,2023-05-29T00:23:00,4.2,南南西,6.6,南南西,20.6,84,0,0,0,0,0,0,1002.8,1016.4
25,2023-05-29T00:24:00,4.1,南南西,6.6,南南西,20.6,84,0,0,0,0,0,0,1002.8,1016.4
26,2023-05-29T00:25:00,4,南南西,6.4,南,20.6,84.1,0,0,0,0,0,0,1002.8,1016.4
27,2023-05-29T00:26:00,4,南南西,6.4,南,20.6,84,0,0,0,0,0,0,1002.8,1016.4
28,2023-05-29T00:27:00,4.2,南南西,6.4,南,20.6,84,0,0,0,0,0,0,1002.8,1016.4
29,2023-05-29T00:28:00,4.2,南南西,6.4,南,20.6,84,0,0,0,0,0,0,1002.8,1016.4
30,2023-05-29T00:29:00,4.1,南南西,6.4,南,20.6,84,0,0,0,0,0,0,1002.8,1016.4
31,2023-05-29T00:30:00,4.1,南南西,6.4,南,20.6,84,0,0,0,0,0,0,1002.7,1016.3
32,2023-05-29T00:31:00,4.2,南南西,6.4,南,20.5,84,0,0,0,0,0,0,1002.7,1016.3
33,2023-05-29T00:32:00,4.2,南南西,6.2,南南西,20.5,84.1,0,0,0,0,0,0,1002.7,1016.3
34,2023-05-29T00:33:00,4.1,南南西,5.8,南,20.6,84.2,0,0,0,0,0,0,1002.7,1016.3
35,2023-05-29T00:34:00,4.1,南南西,5.8,南,20.5,84.2,0,0,0,0,0,0,1002.7,1016.3
36,2023-05-29T00:35:00,4.1,南南西,5.8,南,20.5,84.2,0,0,0,0,0,0,1002.6,1016.2
37,2023-05-29T00:36:00,4.1,南南西,5.8,南,20.5,84.2,0,0,0,0,0,0,1002.6,1016.2
38,2023-05-29T00:37:00,4,南南西,5.6,南南西,20.5,84.3,0,0,0,0,0,0,1002.6,1016.2
39,2023-05-29T00:38:00,3.9,南南西,5.6,南南西,20.5,84.4,0,0,0,0,0,0,1002.6,1016.2
40,2023-05-29T00:39:00,3.9,南南西,5.6,南南西,20.6,84.5,0,0,0,0,0,0,1002.6,1016.2
41,2023-05-29T00:40:00,3.8,南南西,5.6,南南西,20.6,84.4,0,0,0,0,0,0,1002.6,1016.2
42,2023-05-29T00:41:00,3.8,南南西,5.6,南南西,20.5,84.4,0,0,0,0,0,0,1002.5,1016.1
43,2023-05-29T00:42:00,3.7,南,5.6,南南西,20.5,84.5,0,0,0,0,0,0,1002.5,1016.1
44,2023-05-29T00:43:00,3.7,南,6.6,南,20.5,84.6,0,0,0,0,0,0,1002.5,1016.1
45,2023-05-29T00:44:00,3.6,南,6.6,南,20.5,84.7,0,0,0,0,0,0,1002.5,1016.1
46,2023-05-29T00:45:00,3.6,南南西,6.6,南,20.5,84.7,0,0,0,0,0,0,1002.5,1016.1
47,2023-05-29T00:46:00,3.7,南南西,6.6,南,20.5,84.8,0,0,0,0,0,0,1002.4,1016
48,2023-05-29T00:47:00,3.6,南南西,6.6,南,20.5,84.8,0,0,0,0,0,0,1002.4,1016
49,2023-05-29T00:48:00,3.7,南南西,6.6,南,20.5,84.9,0,0,0,0,0,0,1002.4,1016
50,2023-05-29T00:49:00,3.8,南南西,6.6,南,20.5,84.9,0,0,0,0,0,0,1002.3,1015.9
51,2023-05-29T00:50:00,3.9,南南西,6.8,南,20.5,84.8,0,0,0,0,0,0,1002.3,1015.9
52,2023-05-29T00:51:00,3.9,南南西,6.8,南,20.5,84.9,0,0,0,0,0,0,1002.3,1015.9
53,2023-05-29T00:52:00,3.9,南南西,6.8,南,20.4,85,0,0,0,0,0,0,1002.3,1015.9
54,2023-05-29T00:53:00,3.9,南南西,6.8,南,20.5,85.1,0,0,0,0,0,0,1002.3,1015.9
55,2023-05-29T00:54:00,4,南南西,6.8,南,20.5,85.2,0,0,0,0,0,0,1002.3,1015.9
56,2023-05-29T00:55:00,4,南南西,6.8,南,20.5,85.3,0,0,0,0,0,0,1002.3,1015.9
57,2023-05-29T00:56:00,4.1,南南西,6.8,南,20.5,85.2,0,0,0,0,0,0,1002.3,1015.9
58,2023-05-29T00:57:00,4.1,南南西,6.8,南,20.5,85.2,0,0,0,0,0,0,1002.3,1015.9
59,2023-05-29T00:58:00,4.2,南南西,6.8,南,20.5,85.3,0,0,0,0,0,0,1002.2,1015.8
60,2023-05-29T00:59:00,4.2,南南西,6.8,南,20.4,85.3,0,0,0,0,0,0,1002.2,1015.8
61,2023-05-29T01:00:00,4.1,南南西,6.6,南,20.5,85.4,0,0,0,0,0,0,1002.2,1015.8
62,2023-05-29T01:01:00,4.2,南南西,6.6,南,20.5,85.5,0,0,0,0,0,0,1002.2,1015.8
63,2023-05-29T01:02:00,4.3,南南西,6.6,南,20.4,85.4,0,0,0,0,0,0,1002.2,1015.8
64,2023-05-29T01:03:00,4.3,南南西,6.6,南,20.5,85.4,0,0,0,0,0,0,1002.1,1015.7
65,2023-05-29T01:04:00,4.3,南南西,6.6,南,20.4,85.5,0,0,0,0,0,0,1002.1,1015.7
66,2023-05-29T01:05:00,4.4,南南西,6.6,南,20.4,85.6,0,0,0,0,0,0,1002.1,1015.7
67,2023-05-29T01:06:00,4.3,南南西,6.6,南,20.4,85.6,0,0,0,0,0,0,1002.1,1015.7
68,2023-05-29T01:07:00,4.3,南南西,6.6,南,20.4,85.6,0,0,0,0,0,0,1002,1015.6
69,2023-05-29T01:08:00,4.2,南南西,6.6,南,20.4,85.6,0,0,0,0,0,0,1002,1015.6
70,2023-05-29T01:09:00,4.2,南南西,6.5,南,20.4,85.7,0,0,0,0,0,0,1002,1015.6
71,2023-05-29T01:10:00,4.2,南南西,6.5,南,20.4,85.7,0,0,0,0,0,0,1002,1015.6
72,2023-05-29T01:11:00,4.3,南南西,6.5,南,20.4,85.8,0,0,0,0,0,0,1002,1015.6
73,2023-05-29T01:12:00,4.2,南南西,6.4,南南西,20.4,85.8,0,0,0,0,0,0,1002,1015.6
74,2023-05-29T01:13:00,4.3,南南西,6.4,南南西,20.4,85.8,0,0,0,0,0,0,1002,1015.6
75,2023-05-29T01:14:00,4.4,南南西,7.1,南南西,20.4,85.9,0,0,0,0,0,0,1002,1015.6
76,2023-05-29T01:15:00,4.5,南南西,7.1,南南西,20.4,85.9,0,0,0,0,0,0,1002,1015.6
77,2023-05-29T01:16:00,4.6,南南西,7.1,南南西,20.4,85.9,0,0,0,0,0,0,1001.9,1015.5
78,2023-05-29T01:17:00,4.8,南南西,7.1,南南西,20.4,85.8,0,0,0,0,0,0,1001.9,1015.5
79,2023-05-29T01:18:00,4.8,南南西,7.1,南南西,20.4,85.8,0,0,0,0,0,0,1001.9,1015.5
80,2023-05-29T01:19:00,4.7,南南西,7.1,南南西,20.4,85.9,0,0,0,0,0,0,1001.9,1015.5
81,2023-05-29T01:20:00,4.7,南南西,7.1,南南西,20.4,86.1,0,0,0,0,0,0,1001.9,1015.5
82,2023-05-29T01:21:00,4.7,南南西,7.1,南南西,20.4,86.1,0,0,0,0,0,0,1001.9,1015.5
83,2023-05-29T01:22:00,4.6,南南西,7.1,南南西,20.4,86.1,0,0,0,0,0,0,1001.9,1015.5
84,2023-05-29T01:23:00,4.6,南南西,7.1,南南西,20.4,86.1,0,0,0,0,0,0,1001.9,1015.5
85,2023-05-29T01:24:00,,"",,"",,,,,,,,,,
86,2023-05-29T01:25:00,4.3,南南西,6.5,南南西,20.4,86.2,0,0,0,0,0,0,1001.9,1015.5
87,2023-05-29T01:26:00,4.2,南南西,6.5,南南西,20.4,86.2,0,0,0,0,0,0,1001.9,1015.5
88,2023-05-29T01:27:00,4,南南西,6,南,20.4,86.1,0,0,0,0,0,0,1001.9,1015.5
89,2023-05-29T01:28:00,3.8,南南西,5.8,南,20.4,86.2,0,0,0,0,0,0,1001.9,1015.5
90,2023-05-29T01:29:00,3.8,南南西,5.8,南,20.4,86.3,0,0,0,0,0,0,1001.9,1015.5
91,2023-05-29T01:30:00,3.8,南南西,5.8,南,20.4,86.3,0,0,0,0,0,0,1001.9,1015.5
92,2023-05-29T01:31:00,3.8,南南西,5.9,南,20.4,86.3,0,0,0,0,0,0,1001.9,1015.5
93,2023-05-29T01:32:00,3.9,南南西,7.6,南,20.4,86.3,0,0,0,0,0,0,1001.8,1015.4
94,2023-05-29T01:33:00,3.9,南南西,7.6,南,20.4,86.4,0,0,0,0,0,0,1001.8,1015.4
95,2023-05-29T01:34:00,4,南南西,7.6,南,20.4,86.5,0,0,0,0,0,0,1001.8,1015.4
96,2023-05-29T01:35:00,4,南南西,7.6,南,20.4,86.4,0,0,0,0,0,0,1001.8,1015.4
97,2023-05-29T01:36:00,4,南南西,7.6,南,20.4,86.5,0,0,0,0,0,0,1001.8,1015.4
98,2023-05-29T01:37:00,4.1,南南西,7.6,南,20.3,86.5,0,0,0,0,0,0,1001.8,1015.4
99,2023-05-29T01:38:00,4.2,南南西,7.6,南,20.3,86.6,0,0,0,0,0,0,1001.8,1015.4
100,2023-05-29T01:39:00,4.3,南南西,7.6,南,20.3,86.7,0,0,0,0,0,0,1001.7,1015.3
101,2023-05-29T01:40:00,4.4,南南西,7.6,南,20.3,86.8,0,0,0,0,0,0,1001.7,1015.3
102,2023-05-29T01:41:00,4.5,南南西,7.6,南,20.3,86.9,0,0,0,0,0,0,1001.6,1015.2
103,2023-05-29T01:42:00,4.5,南南西,7.2,南南西,20.3,87,0,0,0,0,0,0,1001.6,1015.2
104,2023-05-29T01:43:00,4.5,南南西,7.2,南南西,20.3,87.1,0,0,0,0,0,0,1001.6,1015.2
105,2023-05-29T01:44:00,4.6,南,7.2,南南西,20.3,87.1,0,0,0,0,0,0,1001.6,1015.2
106,2023-05-29T01:45:00,4.6,南,7.2,南南西,20.3,87,0,0,0,0,0,0,1001.6,1015.2
107,2023-05-29T01:46:00,4.6,南,7.2,南南西,20.3,87,0,0,0,0,0,0,1001.6,1015.2
108,2023-05-29T01:47:00,4.7,南,7.2,南南西,20.3,87,0,0,0,0,0,0,1001.6,1015.2
109,2023-05-29T01:48:00,4.7,南,7.2,南南西,20.3,87.1,0,0,0,0,0,0,1001.6,1015.2
110,2023-05-29T01:49:00,4.5,南,7.2,南南西,20.3,87.3,0,0,0,0,0,0,1001.6,1015.2
111,2023-05-29T01:50:00,4.5,南,7.2,南南西,20.3,87.3,0,0,0,0,0,0,1001.6,1015.2
112,2023-05-29T01:51:00,4.4,南,7.2,南,20.3,87.3,0,0,0,0,0,0,1001.6,1015.2
113,2023-05-29T01:52:00,4.3,南,7.2,南,20.3,87.5,0,0,0,0,0,0,1001.6,1015.2
114,2023-05-29T01:53:00,4.3,南,7.2,南,20.3,87.5,0,0,0,0,0,0,1001.6,1015.2
115,2023-05-29T01:54:00,4.1,南,6.6,南,20.4,87.7,0,0,0,0,0,0,1001.6,1015.2
116,2023-05-29T01:55:00,3.9,南,6.4,南,20.4,87.7,0,0,0,0,0,0,1001.5,1015.1
117,2023-05-29T01:56:00,3.7,南,6.4,南,20.3,87.7,0,0,0,0,0,0,1001.5,1015.1
118,2023-05-29T01:57:00,3.6,南,6.4,南,20.3,87.6,0,0,0,0,0,0,1001.5,1015.1
119,2023-05-29T01:58:00,3.5,南,6.4,南,20.4,87.7,0,0,0,0,0,0,1001.5,1015.1
120,2023-05-29T01:59:00,3.4,南,6.4,南,20.4,87.8,0,0,0,0,0,0,1001.5,1015.1
121,2023-05-29T02:00:00,3.2,南,6.4,南,20.4,87.8,0,0,0,0,0,0,1001.6,1015.2
122,2023-05-29T02:01:00,3,南,6.4,南,20.4,87.6,0,0,0,0,0,0,1001.5,1015.1
123,2023-05-29T02:02:00,3,南,6.4,南,20.4,87.5,0,0,0,0,0,0,1001.5,1015.1
124,2023-05-29T02:03:00,2.8,南,5.4,南,20.4,87.5,0,0,0,0,0,0,1001.5,1015.1
125,2023-05-29T02:04:00,2.9,南,5.4,南,20.3,87.6,0,0,0,0,0,0,1001.5,1015.1
126,2023-05-29T02:05:00,2.9,南,5.4,南,20.3,87.6,0,0,0,0,0,0,1001.5,1015.1
127,2023-05-29T02:06:00,2.9,南,5.4,南,20.3,87.5,0,0,0,0,0,0,1001.4,1015
128,2023-05-29T02:07:00,2.9,南,5.5,南南東,20.4,87.3,0,0,0,0,0,0,1001.5,1015.1
129,2023-05-29T02:08:00,2.9,南,5.5,南南東,20.3,87.1,0,0,0,0,0,0,1001.4,1015
130,2023-05-29T02:09:00,3.1,南,5.5,南南東,20.3,87,0,0,0,0,0,0,1001.4,1015
131,2023-05-29T02:10:00,3.1,南,5.5,南南東,20.4,87.2,0,0,0,0,0,0,1001.4,1015
132,2023-05-29T02:11:00,3.1,南,5.5,南南東,20.4,87.3,0,0,0,0,0,0,1001.4,1015
133,2023-05-29T02:12:00,3,南,5.5,南南東,20.4,87.3,0,0,0,0,0,0,1001.4,1015
134,2023-05-29T02:13:00,2.9,南,5.5,南南東,20.3,87.1,0,0,0,0,0,0,1001.4,1015
135,2023-05-29T02:14:00,2.9,南,5.5,南南東,20.3,87,0,0,0,0,0,0,1001.3,1014.9
136,2023-05-29T02:15:00,2.9,南,5.6,南南西,20.3,87,0,0,0,0,0,0,1001.3,1014.9
137,2023-05-29T02:16:00,3.1,南,6.8,南南西,20.3,87,0,0,0,0,0,0,1001.1,1014.7
138,2023-05-29T02:17:00,3,南,6.8,南南西,20.3,87,0,0,0,0,0,0,1001.1,1014.7
139,2023-05-29T02:18:00,3,南,6.8,南南西,20.3,87,0,0,0,0,0,0,1001,1014.6
140,2023-05-29T02:19:00,2.9,南,6.8,南南西,20.3,87,0,0,0,0,0,0,1001,1014.6
141,2023-05-29T02:20:00,3.1,南,6.8,南南西,20.2,87.1,0,0,0,0,0,0,1001,1014.6
142,2023-05-29T02:21:00,3.1,南,6.8,南南西,20.3,87.2,0,0,0,0,0,0,1001,1014.6
143,2023-05-29T02:22:00,3.4,南,7.9,南,20.3,87.3,0,0,0,0,0,0,1001.1,1014.7
144,2023-05-29T02:23:00,3.7,南,7.9,南,20.3,87.2,0,0,0,0,0,0,1001.1,1014.7
145,2023-05-29T02:24:00,3.9,南,7.9,南,20.3,87.2,0,0,0,0,0,0,1001.2,1014.8
146,2023-05-29T02:25:00,3.8,南,7.9,南,20.3,87.2,0,0,0,0,0,0,1001.2,1014.8
147,2023-05-29T02:26:00,3.7,南,7.9,南,20.3,87.2,0,0,0,0,0,0,1001.2,1014.8
148,2023-05-29T02:27:00,3.9,南,7.9,南,20.3,87.3,0,0,0,0,0,0,1001.2,1014.8
149,2023-05-29T02:28:00,4,南,7.9,南,20.3,87.3,0,0,0,0,0,0,1001.2,1014.8
150,2023-05-29T02:29:00,3.9,南,7.9,南,20.3,87.4,0,0,0,0,0,0,1001.2,1014.8
151,2023-05-29T02:30:00,3.8,南,7.9,南,20.2,87.5,0,0,0,0,0,0,1001.2,1014.8
152,2023-05-29T02:31:00,3.7,南,7.9,南,20.2,87.6,0,0,0,0,0,0,1001.1,1014.7
153,2023-05-29T02:32:00,3.3,南,7.8,南,20.3,87.7,0,0,0,0,0,0,1001.2,1014.8
154,2023-05-29T02:33:00,3.1,南,6.5,南,20.3,87.9,0,0,0,0,0,0,1001.2,1014.8
155,2023-05-29T02:34:00,2.9,南,6.5,南,20.3,87.9,0,0,0,0,0,0,1001.2,1014.8
156,2023-05-29T02:35:00,2.8,南,6.5,南,20.3,87.9,0,0,0,0,0,0,1001.2,1014.8
157,2023-05-29T02:36:00,2.7,南,5.7,南,20.4,87.9,0,0,0,0,0,0,1001.2,1014.8
158,2023-05-29T02:37:00,2.6,南,5.8,南南東,20.3,87.8,0,0,0,0,0,0,1001.2,1014.8
159,2023-05-29T02:38:00,2.4,南,5.8,南南東,20.3,87.7,0,0,0,0,0,0,1001.2,1014.8
160,2023-05-29T02:39:00,2.4,南,5.8,南南東,20.3,87.7,0,0,0,0,0,0,1001.3,1014.9
161,2023-05-29T02:40:00,2.3,南,5.8,南南東,20.3,87.7,0,0,0,0,0,0,1001.2,1014.8
162,2023-05-29T02:41:00,2.2,南,5.8,南南東,20.3,87.8,0,0,0,0,0,0,1001.2,1014.8
163,2023-05-29T02:42:00,2.1,南,5.8,南南東,20.3,87.7,0,0,0,0,0,0,1001.2,1014.8
164,2023-05-29T02:43:00,2,南,5.8,南南東,20.3,87.6,0,0,0,0,0,0,1001.2,1014.8
165,2023-05-29T02:44:00,1.9,南南東,5.8,南南東,20.3,87.5,0,0,0,0,0,0,1001.2,1014.8
166,2023-05-29T02:45:00,1.9,南南東,5.8,南南東,20.3,87.3,0,0,0,0,0,0,1001.2,1014.8
167,2023-05-29T02:46:00,1.8,南南東,5.8,南南東,20.4,87.3,0,0,0,0,0,0,1001.1,1014.7
168,2023-05-29T02:47:00,1.5,南南東,4.9,南南西,20.3,87.3,0,0,0,0,0,0,1001.2,1014.8
169,2023-05-29T02:48:00,1.5,南南東,4.9,南南西,20.3,87.2,0,0,0,0,0,0,1001.1,1014.7
170,2023-05-29T02:49:00,1.4,南南東,4.6,南南東,20.3,87.2,0,0,0,0,0,0,1001.2,1014.8
171,2023-05-29T02:50:00,1.3,南南東,4.5,南,20.4,87.1,0,0,0,0,0,0,1001.1,1014.7
172,2023-05-29T02:51:00,1.3,南南東,4.5,南,20.4,87,0,0,0,0,0,0,1001.1,1014.7
173,2023-05-29T02:52:00,1.4,南南東,4.5,南,20.4,86.8,0,0,0,0,0,0,1001.1,1014.7
174,2023-05-29T02:53:00,1.5,南南東,4.5,南,20.4,86.6,0,0,0,0,0,0,1001.1,1014.7
175,2023-05-29T02:54:00,1.4,南南東,4.5,南,20.4,86.6,0,0,0,0,0,0,1001.1,1014.7
176,2023-05-29T02:55:00,1.4,南南東,4.5,南,20.4,86.7,0,0,0,0,0,0,1001.1,1014.7
177,2023-05-29T02:56:00,1.4,南南東,4.5,南,20.4,86.6,0,0,0,0,0,0,1001.2,1014.8
178,2023-05-29T02:57:00,1.5,南南東,4.5,南,20.4,86.6,0,0,0,0,0,0,1001.1,1014.7
179,2023-05-29T02:58:00,1.4,南南東,3.7,南,20.4,86.6,0,0,0,0,0,0,1001.1,1014.7
180,2023-05-29T02:59:00,1.3,南南東,3.7,南,20.4,86.6,0,0,0,0,0,0,1001,1014.6
181,2023-05-29T03:00:00,1.3,南南東,4.3,南南東,20.4,86.6,0,0,0,0,0,0,1001,1014.6
182,2023-05-29T03:01:00,1.5,南南東,5.5,南,20.4,86.6,0,0,0,0,0,0,1001,1014.6
183,2023-05-29T03:02:00,1.5,南南東,5.5,南,20.4,86.6,0,0,0,0,0,0,1001.1,1014.7
184,2023-05-29T03:03:00,1.5,南南東,5.5,南,20.4,86.4,0,0,0,0,0,0,1001.1,1014.7
185,2023-05-29T03:04:00,1.7,南南東,5.5,南,20.5,86.2,0,0,0,0,0,0,1001.1,1014.7
186,2023-05-29T03:05:00,1.7,南南東,5.5,南,20.4,86,0,0,0,0,0,0,1001,1014.6
187,2023-05-29T03:06:00,1.7,南南東,5.5,南,20.4,86,0,0,0,0,0,0,1001,1014.6
188,2023-05-29T03:07:00,1.9,南南東,5.5,南,20.4,86,0,0,0,0,0,0,1001.1,1014.7
189,2023-05-29T03:08:00,1.9,南,5.5,南,20.4,86.1,0,0,0,0,0,0,1001.1,1014.7
190,2023-05-29T03:09:00,2,南,5.5,南,20.5,86.2,0,0,0,0,0,0,1001.1,1014.7
191,2023-05-29T03:10:00,2.2,南,5.5,南,20.5,86.1,0,0,0,0,0,0,1001.1,1014.7
192,2023-05-29T03:11:00,2.1,南,4.9,南南東,20.4,86,0,0,0,0,0,0,1001.1,1014.7
193,2023-05-29T03:12:00,2,南,4.9,南南東,20.4,86,0,0,0,0,0,0,1001,1014.6
194,2023-05-29T03:13:00,1.9,南,4.6,南,20.4,86,0,0,0,0,0,0,1001,1014.6
195,2023-05-29T03:14:00,1.8,南,4.6,南,20.4,86.1,0,0,0,0,0,0,1001,1014.6
196,2023-05-29T03:15:00,1.7,南,4.3,南南西,20.5,86.3,0,0,0,0,0,0,1000.9,1014.5
197,2023-05-29T03:16:00,1.6,南,4.3,南南西,20.5,86.2,0,0,0,0,0,0,1001,1014.6
198,2023-05-29T03:17:00,1.5,南,4.3,南南西,20.5,86.1,0,0,0,0,0,0,1001,1014.6
199,2023-05-29T03:18:00,1.5,南,4.3,南南西,20.5,86.1,0,0,0,0,0,0,1001,1014.6
200,2023-05-29T03:19:00,1.5,南,4.3,南南西,20.5,86.1,0,0,0,0,0,0,1001,1014.6
201,2023-05-29T03:20:00,1.4,南,4.1,南南西,20.5,86,0,0,0,0,0,0,1001,1014.6
202,2023-05-29T03:21:00,1.4,南,4.1,南南西,20.5,85.9,0,0,0,0,0,0,1000.9,1014.5
203,2023-05-29T03:22:00,1.3,南南東,4.1,南南西,20.5,86.1,0,0,0,0,0,0,1000.9,1014.5
204,2023-05-29T03:23:00,1.4,南南東,4.1,南南西,20.5,86.2,0,0,0,0,0,0,1000.9,1014.5
205,2023-05-29T03:24:00,1.4,南南東,4.1,南南西,20.5,86.1,0,0,0,0,0,0,1000.9,1014.5
206,2023-05-29T03:25:00,1.5,南南東,4.1,南南西,20.5,86,0,0,0,0,0,0,1000.8,1014.4
207,2023-05-29T03:26:00,1.5,南南東,4.1,南南西,20.5,86,0,0,0,0,0,0,1000.8,1014.4
208,2023-05-29T03:27:00,1.5,南南東,4.1,南南西,20.5,86.1,0,0,0,0,0,0,1000.9,1014.5
209,2023-05-29T03:28:00,1.4,南南東,4,南東,20.6,86.2,0,0,0,0,0,0,1000.9,1014.5
210,2023-05-29T03:29:00,1.4,南南東,4,南東,20.6,86.2,0,0,0,0,0,0,1000.9,1014.5
211,2023-05-29T03:30:00,1.4,南南東,4,南東,20.6,86,0,0,0,0,0,0,1000.8,1014.4
212,2023-05-29T03:31:00,1.4,南東,4,南東,20.6,86,0,0,0,0,0,0,1000.8,1014.4
213,2023-05-29T03:32:00,1.4,南南東,4,南東,20.5,86,0,0,0,0,0,0,1000.7,1014.3
214,2023-05-29T03:33:00,1.4,南南東,4,南東,20.6,86,0,0,0,0,0,0,1000.7,1014.3
215,2023-05-29T03:34:00,1.4,南南東,4,南東,20.5,86,0,0,0,0,0,0,1000.6,1014.2
216,2023-05-29T03:35:00,1.4,南南東,4,南東,20.5,86,0,0,0,0,0,0,1000.6,1014.2
217,2023-05-29T03:36:00,1.5,南南東,4,南東,20.5,86.1,0,0,0,0,0,0,1000.5,1014.1
218,2023-05-29T03:37:00,1.4,南東,3.7,南南東,20.5,86.2,0,0,0,0,0,0,1000.5,1014.1
219,2023-05-29T03:38:00,1.6,南南東,4.9,南南東,20.5,86.3,0,0,0,0,0,0,1000.4,1014
220,2023-05-29T03:39:00,1.5,南東,4.9,南南東,20.5,86.4,0,0,0,0,0,0,1000.4,1014
221,2023-05-29T03:40:00,1.5,南東,4.9,南南東,20.4,86.6,0,0,0,0,0,0,1000.4,1014
222,2023-05-29T03:41:00,1.6,南南東,5.5,南南東,20.4,86.7,0,0,0,0,0,0,1000.4,1014
223,2023-05-29T03:42:00,1.6,南南東,5.5,南南東,20.4,86.9,0,0,0,0,0,0,1000.4,1014
224,2023-05-29T03:43:00,1.7,南南東,5.5,南南東,20.4,87,0,0,0,0,0,0,1000.4,1014
225,2023-05-29T03:44:00,1.7,南南東,5.5,南南東,20.4,87.1,0,0,0,0,0,0,1000.4,1014
226,2023-05-29T03:45:00,1.7,南南東,5.5,南南東,20.4,87.3,0,0,0,0,0,0,1000.4,1014
227,2023-05-29T03:46:00,1.7,南南東,5.5,南南東,20.4,87.3,0,0,0,0,0,0,1000.4,1014
228,2023-05-29T03:47:00,1.7,南南東,5.5,南南東,20.4,87.4,0,0,0,0,0,0,1000.4,1014
229,2023-05-29T03:48:00,1.8,南,5.5,南南東,20.4,87.4,0,0,0,0,0,0,1000.4,1014
230,2023-05-29T03:49:00,1.8,南,5.5,南南東,20.4,87.5,0,0,0,0,0,0,1000.3,1013.9
231,2023-05-29T03:50:00,2,南,5.5,南南東,20.5,87.6,0,0,0,0,0,0,1000.3,1013.9
232,2023-05-29T03:51:00,2.2,南,6.4,南,20.5,87.5,0,0,0,0,0,0,1000.3,1013.9
233,2023-05-29T03:52:00,2.3,南,6.4,南,20.4,87.5,0,0,0,0,0,0,1000.3,1013.9
234,2023-05-29T03:53:00,2.5,南,6.4,南,20.5,87.6,0,0,0,0,0,0,1000.3,1013.9
235,2023-05-29T03:54:00,2.6,南,6.4,南,20.4,87.6,0,0,0,0,0,0,1000.3,1013.9
236,2023-05-29T03:55:00,2.7,南,6.4,南,20.5,87.6,0,0,0,0,0,0,1000.4,1014
237,2023-05-29T03:56:00,2.8,南,6.4,南,20.5,87.7,0,0,0,0,0,0,1000.3,1013.9
238,2023-05-29T03:57:00,2.9,南,6.4,南,20.4,87.7,0,0,0,0,0,0,1000.3,1013.9
239,2023-05-29T03:58:00,2.9,南,6.4,南,20.5,87.7,0,0,0,0,0,0,1000.3,1013.9
240,2023-05-29T03:59:00,3,南,6.4,南,20.5,87.7,0,0,0,0,0,0,1000.3,1013.9
241,2023-05-29T04:00:00,3,南,6.4,南,20.4,87.6,0,0,0,0,0,0,1000.3,1013.9
242,2023-05-29T04:01:00,3,南,5.5,南南西,20.5,87.6,0,0,0,0,0,0,1000.3,1013.9
243,2023-05-29T04:02:00,3.1,南,5.8,南,20.5,87.5,0,0,0,0,0,0,1000.3,1013.9
244,2023-05-29T04:03:00,3.2,南,5.8,南,20.5,87.5,0,0,0,0,0,0,1000.3,1013.9
245,2023-05-29T04:04:00,3.3,南,6.3,南,20.5,87.5,0,0,0,0,0,0,1000.2,1013.8
246,2023-05-29T04:05:00,3.4,南,6.4,南,20.5,87.4,0,0,0,0,0,0,1000.3,1013.9
247,2023-05-29T04:06:00,3.5,南,6.4,南,20.5,87.3,0,0,0,0,0,0,1000.3,1013.9
248,2023-05-29T04:07:00,3.3,南,6.4,南,20.5,87.2,0,0,0,0,0,0,1000.3,1013.9
249,2023-05-29T04:08:00,3.4,南,6.4,南,20.5,87.1,0,0,0,0,0,0,1000.3,1013.9
250,2023-05-29T04:09:00,3.3,南,6.4,南,20.6,87.3,0,0,0,0,0,0,1000.3,1013.9
251,2023-05-29T04:10:00,3.2,南,6.4,南,20.6,87.4,0,0,0,0,0,0,1000.3,1013.9
252,2023-05-29T04:11:00,3.2,南,6.4,南,20.5,87.2,0,0,0,0,0,0,1000.2,1013.8
253,2023-05-29T04:12:00,3.1,南,6.9,南,20.6,87.3,0,0,0,0,0,0,1000.2,1013.8
254,2023-05-29T04:13:00,3.2,南,6.9,南,20.6,87.4,0,0,0,0,0,0,1000.2,1013.8
255,2023-05-29T04:14:00,3.3,南,7.8,南,20.6,87.4,0,0,0,0,0,0,1000.2,1013.8
256,2023-05-29T04:15:00,3.4,南,7.8,南,20.6,87.6,0,0,0,0,0,0,1000.2,1013.8
257,2023-05-29T04:16:00,3.4,南,7.8,南,20.6,87.6,0,0,0,0,0,0,1000.1,1013.7
258,2023-05-29T04:17:00,3.5,南,7.8,南,20.6,87.5,0,0,0,0,0,0,1000.2,1013.8
259,2023-05-29T04:18:00,3.6,南,7.8,南,20.6,87.5,0,0,0,0,0,0,1000.1,1013.7
260,2023-05-29T04:19:00,3.6,南,7.8,南,20.5,87.5,0,0,0,0,0,0,1000.1,1013.7
261,2023-05-29T04:20:00,3.5,南,7.8,南,20.5,87.5,0,0,0,0,0,0,1000.2,1013.8
262,2023-05-29T04:21:00,3.4,南,7.8,南,20.5,87.4,0,0,0,0,0,0,1000.2,1013.8
263,2023-05-29T04:22:00,3.1,南,7.8,南,20.4,87.4,0,0,0,0,0,0,1000.2,1013.8
264,2023-05-29T04:23:00,2.7,南,7.8,南,20.4,87.5,0,0,0,0,0,0,1000.2,1013.8
265,2023-05-29T04:24:00,2.4,南,7,南南西,20.5,87.6,0,0,0,0,0,0,1000.2,1013.8
266,2023-05-29T04:25:00,2,南,7,南南西,20.5,87.8,0,0,0,0,0,0,1000.2,1013.8
267,2023-05-29T04:26:00,1.9,南,5.9,南,20.4,87.8,0,0,0,0,0,0,1000.2,1013.8
268,2023-05-29T04:27:00,1.7,南南東,5.9,南,20.5,87.7,0,0,0,0,0,0,1000.2,1013.8
269,2023-05-29T04:28:00,1.5,南南東,5.5,南,20.5,87.8,0,0,0,0,0,0,1000.2,1013.8
270,2023-05-29T04:29:00,1.4,南南東,5.5,南,20.4,87.9,0,0,0,0,0,0,1000.2,1013.8
271,2023-05-29T04:30:00,1.3,南南東,3.9,南,20.4,87.9,0,0,0,0,0,0,1000.1,1013.7
272,2023-05-29T04:31:00,1.3,南南東,3.9,南,20.5,88,0,0,0,0,0,0,1000.1,1013.7
273,2023-05-29T04:32:00,1.4,南南東,5.3,南東,20.5,88,0,0,0,0,0,0,1000.1,1013.7
274,2023-05-29T04:33:00,1.6,南南東,5.3,南東,20.5,87.9,0,0,0,0,0,0,1000.1,1013.7
275,2023-05-29T04:34:00,1.6,南南東,5.3,南東,20.5,87.8,0,0,0,0,0,0,1000.1,1013.7
276,2023-05-29T04:35:00,1.6,南南東,5.3,南東,20.5,87.7,0,0,0,0,0,0,1000,1013.6
277,2023-05-29T04:36:00,1.6,南南東,5.3,南東,20.5,87.5,0,0,0,0,0,0,1000.1,1013.7
278,2023-05-29T04:37:00,1.7,南南東,5.3,南東,20.4,87.5,0,0,0,0,0,0,1000.1,1013.7
279,2023-05-29T04:38:00,1.7,南南東,5.3,南東,20.4,87.6,0,0,0,0,0,0,1000.1,1013.7
280,2023-05-29T04:39:00,1.7,南南東,5.3,南東,20.4,87.7,0,0,0,0,0,0,1000.1,1013.7
281,2023-05-29T04:40:00,1.7,南南東,5.3,南東,20.4,87.6,0,0,0,0,0,0,1000,1013.6
282,2023-05-29T04:41:00,1.7,南南東,5.3,南東,20.4,87.6,0,0,0,0,0,0,1000.1,1013.7
283,2023-05-29T04:42:00,1.7,南南東,5,南,20.4,87.8,0,0,0,0,0,0,1000.1,1013.7
284,2023-05-29T04:43:00,1.6,南南東,5,南,20.5,87.8,0,0,0,0,0,0,1000.1,1013.7
285,2023-05-29T04:44:00,1.6,南南東,5,南,20.4,87.5,0,0,0,0,0,0,1000.1,1013.7
286,2023-05-29T04:45:00,1.6,南南東,5,南,20.4,87.4,0,0,0,0,0,0,1000.1,1013.7
287,2023-05-29T04:46:00,1.5,南南東,5,南,20.4,87.4,0,0,0,0,0,0,1000.1,1013.7
288,2023-05-29T04:47:00,1.6,南南東,5,南,20.5,87.4,0,0,0,0,0,0,1000.2,1013.8
289,2023-05-29T04:48:00,1.7,南南東,5,南,20.5,87.5,0,0,0,0,0,0,1000.2,1013.8
290,2023-05-29T04:49:00,1.8,南南東,5.3,南,20.5,87.5,0,0,0,0,0,0,1000.2,1013.8
291,2023-05-29T04:50:00,2,南,5.3,南,20.5,87.7,0,0,0,0,0,0,1000.2,1013.8
292,2023-05-29T04:51:00,2.1,南,5.3,南,20.5,87.5,0,0,0,0,0,0,1000.2,1013.8
293,2023-05-29T04:52:00,2,南,5.3,南,20.5,87.3,0,0,0,0,0,0,1000.2,1013.8
294,2023-05-29T04:53:00,1.9,南,5.3,南,20.5,87.2,0,0,0,0,0,0,1000.2,1013.8
295,2023-05-29T04:54:00,1.8,南,5.3,南,20.5,87.3,0,0,0,0,0,0,1000.2,1013.8
296,2023-05-29T04:55:00,1.9,南,5.3,南,20.5,87.4,0,0,0,0,0,0,1000.2,1013.8
297,2023-05-29T04:56:00,2,南,5.3,南,20.5,87.6,0,0,0,0,0,0,1000.3,1013.9
298,2023-05-29T04:57:00,1.9,南,5.3,南,20.5,87.7,0,0,0,0,0,0,1000.3,1013.9
299,2023-05-29T04:58:00,1.8,南,5.3,南,20.5,87.7,0,0,0,0,0,0,1000.3,1013.9
300,2023-05-29T04:59:00,1.6,南,5,南,20.5,87.7,0,0,0,0,0,0,1000.3,1013.9
301,2023-05-29T05:00:00,1.5,南,5,南,20.5,87.7,0,0,0,0,0,0,1000.3,1013.9
302,2023-05-29T05:01:00,1.4,南,5,南,20.5,87.5,0,0,0,0,0,0,1000.3,1013.9
303,2023-05-29T05:02:00,1.4,南,5,南,20.5,87.6,0,0,0,0,0,0,1000.3,1013.9
304,2023-05-29T05:03:00,1.4,南南東,5,南,20.5,87.8,0,0,0,0,0,0,1000.4,1014
305,2023-05-29T05:04:00,1.6,南南東,5,南,20.5,87.8,0,0,0,0,0,0,1000.4,1014
306,2023-05-29T05:05:00,1.4,南南東,5,南,20.5,87.8,0,0,0,0,0,0,1000.4,1014
307,2023-05-29T05:06:00,1.4,南南東,4.1,南南東,20.5,87.9,0,0,0,0,0,0,1000.4,1014
308,2023-05-29T05:07:00,1.4,南南東,4,南,20.5,88,0,0,0,0,0,0,1000.5,1014.1
309,2023-05-29T05:08:00,1.3,南南東,4,南,20.5,88,0,0,0,0,0,0,1000.5,1014.1
310,2023-05-29T05:09:00,1.3,南南東,3.6,南南東,20.5,88,0,0,0,0,0,0,1000.4,1014
311,2023-05-29T05:10:00,1.2,南南東,3.5,南南西,20.5,88,0,0,0,0,0,0,1000.5,1014.1
312,2023-05-29T05:11:00,1.1,南南東,3.5,南南西,20.5,88,0,0,0,0,0,0,1000.5,1014.1
313,2023-05-29T05:12:00,1.2,南南東,3.5,南南西,20.5,88.1,0,0,0,0,0,0,1000.5,1014.1
314,2023-05-29T05:13:00,1.1,南南東,3.5,南南西,20.5,88,0,0,0,0,0,0,1000.5,1014.1
315,2023-05-29T05:14:00,1,南南東,3.5,南南西,20.5,88,0,0,0,0,0,0,1000.5,1014.1
316,2023-05-29T05:15:00,1,南南東,3.5,南南西,20.5,87.9,0,0,0,0,0,0,1000.5,1014.1
317,2023-05-29T05:16:00,1,南南東,3.4,南,20.5,87.9,0,0,0,0,0,0,1000.4,1014
318,2023-05-29T05:17:00,1,南南東,3.4,南,20.5,87.9,0,0,0,0,0,0,1000.4,1014
319,2023-05-29T05:18:00,1,南南東,3.4,南,20.5,87.9,0,0,0,0,0,0,1000.4,1014
320,2023-05-29T05:19:00,1,南南東,4.3,南,20.5,87.9,0,0,0,0,0,0,1000.4,1014
321,2023-05-29T05:20:00,1.2,南南東,4.3,南,20.5,88,0,0,0,0,0,0,1000.4,1014
322,2023-05-29T05:21:00,1.3,南南東,4.3,南,20.5,88,0,0,0,0,0,0,1000.4,1014
323,2023-05-29T05:22:00,1.3,南南東,4.3,南,20.5,88.1,0,0,0,0,0,0,1000.5,1014.1
324,2023-05-29T05:23:00,1.4,南南東,4.3,南,20.5,88,0,0,0,0,0,0,1000.4,1014
325,2023-05-29T05:24:00,1.5,南南東,4.3,南,20.5,87.8,0,0,0,0,0,0,1000.4,1014
326,2023-05-29T05:25:00,1.6,南南東,5.2,南,20.5,87.8,0,0,0,0,0,0,1000.4,1014
327,2023-05-29T05:26:00,1.7,南,5.7,南,20.5,87.8,0,0,0,0,0,0,1000.4,1014
328,2023-05-29T05:27:00,1.8,南,5.7,南,20.5,87.7,0,0,0,0,0,0,1000.5,1014.1
329,2023-05-29T05:28:00,1.8,南,5.7,南,20.5,87.7,0,0,0,0,0,0,1000.4,1014